Location: *
(40.6663°S, 105.8065°E)
Time: 10:11:13
(UTC+00:00)

Daily predictions for brighter satellites

Satellite Brightness Start Highest point End
(mag) Time Altitude Azimuth Time Altitude Azimuth Time Altitude Azimuth
Meteor 1-12 Rocket 4.4 12:48:13 10° N 12:53:43 54° E 12:59:17 10° SSE
Cosmos 1354 Rocket 4.1 12:48:41 10° SSW 12:54:03 87° WNW 12:59:19 10° NNE
MONITOR-E 4.2 12:51:46 10° SSE 12:54:32 47° E 12:57:16 10° N
Cosmos 1378 3.5 12:52:52 10° SSW 12:56:40 69° W 13:00:22 10° N
Cosmos 1939 Rocket 3.7 12:53:20 10° S 12:57:30 59° WSW 13:01:36 10° NNW
Cosmos 1184 Rocket 4.5 12:57:53 10° NE 13:00:18 19° E 13:02:44 10° SE
Ariane Rocket 3.0 12:55:45 10° SSE 13:00:55 69° ENE 13:06:02 10° N
Cosmos 968 Rocket 4.1 12:56:14 10° SSW 13:01:28 61° WNW 13:06:38 10° N
Iridium 4 Rocket 4.0 12:55:58 10° S 13:01:38 81° W 13:07:32 10° N
COSMOS 2406 3.8 12:57:50 10° SSW 13:03:33 60° WNW 13:09:13 10° N
Cosmos 1833 Rocket 2.8 12:58:20 10° SSW 13:04:01 71° ESE 13:09:38 10° NNE
ATLAS 3B R/B 3.2 12:58:10 10° NW 13:05:27 74° SW 13:12:56 10° SSE
ARGOS 3.9 13:01:31 10° SSE 13:06:26 33° E 13:11:18 10° NNE
Aureole 3 Rocket 4.4 13:02:26 10° NNW 13:07:33 67° W 13:14:58 10° S
Cosmos 1707 3.7 13:05:59 10° SSE 13:09:36 33° ESE 13:12:51 12° NE
USA 186 1.2 13:08:58 10° SSE 13:11:18 47° E 13:13:40 10° N
Cosmos 1536 Rocket 3.6 13:06:49 10° S 13:11:19 82° E 13:15:46 10° N
FREGAT/IRIS 2.3 13:09:03 10° SSE 13:11:55 83° ENE 13:14:43 10° N
Meteor 1-4 Rocket 2.6 13:08:52 10° SSW 13:12:27 77° W 13:16:02 10° N
CZ-3A R/B 4.2 12:54:14 10° NW 13:12:48 25° NNW 13:18:20 11° NE
Meteor 1-21 4.4 13:07:56 10° SSW 13:13:43 80° W 13:19:29 10° N
Cosmos 292 Rocket 4.3 13:09:20 10° NNW 13:14:07 65° WSW 13:18:56 10° SSE
Cosmos 1300 Rocket 4.2 13:11:19 10° NNW 13:15:38 61° W 13:20:05 10° S
Hubble Space Telescope 2.8 13:14:15 10° NNW 13:15:56 12° NNE 13:17:01 11° NNE
Gblst 52 Del rocket 4.3 13:12:07 10° WNW 13:17:39 80° SW 13:23:29 10° SE
Cosmos 1842 4.0 13:15:20 10° SSW 13:19:12 53° W 13:23:00 10° N
Mayak 1.0 13:18:42 10° E 13:20:35 13° ESE 13:22:29 10° SE
CZ-2C R/B 3.7 13:18:23 10° SSE 13:23:39 39° E 13:28:36 10° NNE
Cosmos 2315 Rocket 4.0 13:17:28 10° N 13:23:41 75° E 13:29:57 10° S
ATLAS CENTAUR R/B 2.7 13:20:21 10° SW 13:24:30 39° WNW 13:28:52 10° N
Cosmos 1943 Rocket 3.6 13:22:56 13° NE 13:25:23 17° E 13:28:55 10° ESE
Okean 1 Rocket 3.1 13:24:35 10° N 13:29:02 72° E 13:33:35 10° SSE
SL-08 RB Rocket 4.3 13:24:57 10° SSE 13:29:12 38° E 13:32:51 13° NNE
Resurs 1-3 4.4 13:26:44 10° SSE 13:30:45 32° E 13:33:45 16° NNE
Cosmos 1709 Rocket 4.1 13:26:16 10° S 13:32:46 90° ENE 13:39:11 10° N
Cosmos 405 Rocket 4.1 13:30:58 10° NNW 13:34:41 42° WSW 13:38:33 10° S
Cosmos 2297 3.7 13:30:50 10° NNW 13:36:25 69° ENE 13:42:05 10° SSE
Cosmos 2082 Rocket 2.3 13:35:15 10° SSW 13:41:03 88° WNW 13:45:41 16° NNE
CZ-2C R/B 4.2 13:36:11 10° NNW 13:41:05 33° W 13:46:09 10° SSW
SJ-6B 2.8 13:38:54 10° S 13:42:44 81° WSW 13:46:35 10° NNW
EO 1 Del DPAF 3.3 13:43:10 21° NNE 13:45:35 61° ESE 13:49:23 10° S
Cosmos 1674 4.2 13:45:29 10° SSE 13:48:35 22° ESE 13:49:52 19° ENE
Resurs 01 Rocket 2.2 13:45:59 10° SSE 13:50:12 38° E 13:52:29 22° NNE
MetOp-A 4.4 13:48:18 10° SSE 13:53:37 52° E 13:57:37 17° N
USA 267 3.7 13:50:09 10° ESE 13:56:09 36° NE 14:02:05 10° NNW
Cosmos 1437 Rocket 3.2 13:54:13 10° SSW 13:58:07 58° W 14:01:01 17° N
GPS 2-04 Rocket1 3.0 13:56:36 10° WNW 13:59:48 35° N 14:00:19 33° NNE
Thor Agena Rocket 3.6 13:56:59 20° NNE 14:00:46 86° ESE 14:06:11 10° SSW
H-2A R/B 2.5 13:55:23 10° S 14:00:55 71° WSW 14:06:20 10° NNW
Iridium 2 3.9 14:02:18 30° NNE 14:03:55 52° E 14:07:44 10° SSE
SPOT 3 Rocket 3.8 14:02:36 10° S 14:07:54 74° WSW 14:13:08 10° NNW
Genesis I 3.7 14:12:14 35° ENE 14:12:20 35° ENE 14:15:52 10° SE
Cosmos 1763 Rocket 4.4 14:12:29 27° NE 14:13:53 31° E 14:18:32 10° SE
Meteor 2-15 Rocket 4.4 14:08:56 15° N 14:14:15 84° E 14:20:30 10° S
ERBS 3.1 14:13:12 10° WNW 14:16:37 54° SW 14:20:04 10° SE
Cosmos 1733 3.9 14:18:42 34° ENE 14:19:12 36° E 14:22:50 10° SSE
Nadezhda 1 Rocket 4.0 14:15:35 24° NNE 14:19:16 61° E 14:25:26 10° SSE
Cosmos 1898 Rocket 4.4 14:19:02 10° S 14:23:53 37° ESE 14:26:01 26° ENE
Cosmos 2369 Rocket 2.3 14:27:34 28° N 14:30:23 54° ENE 14:36:00 10° SSE
ERS-1 Rocket 4.2 14:26:25 10° SE 14:30:29 24° E 14:30:51 23° E
Okean 1-7 Rocket 3.7 14:28:06 10° S 14:32:46 78° W 14:34:42 35° N
Cosmos 2074 Rocket 4.1 14:29:43 10° S 14:36:00 74° W 14:39:44 26° N
Cosmos 1766 3.2 14:34:55 40° NNW 14:36:15 80° W 14:40:13 10° S
Landsat 4 3.9 14:38:28 51° ENE 14:39:04 59° ESE 14:42:52 10° S
Cosmos 841 Rocket 4.4 14:40:20 30° ENE 14:40:37 30° E 14:45:08 10° SE
KORONAS-FOTON 3.7 14:36:49 10° S 14:40:45 88° E 14:41:31 57° N
Cosmos 1470 3.8 14:44:21 32° E 14:44:21 32° E 14:47:46 10° SSE
BREEZE-M DEB (TANK) 3.7 14:44:24 10° SW 14:46:46 41° SSE 14:49:51 19° E
SeaSat 1 2.3 14:47:44 10° SSE 14:52:45 75° ENE 14:54:39 38° NNW
Cosmos 1656 Rocket 4.3 14:53:38 36° ENE 14:54:10 37° ENE 14:59:24 10° SE
Meteor 2-5 Rocket 4.1 14:49:05 10° SSW 14:55:02 63° W 14:57:55 31° NNW
Cosmos 1758 3.9 14:55:42 43° E 14:55:42 43° E 14:59:20 10° SSE
Mayak -0.8 14:54:38 43° NNW 14:55:39 56° W 14:59:49 10° SSW
Cosmos 1455 Rocket 4.0 14:55:15 23° NW 14:57:41 45° WSW 15:02:02 10° S
Cosmos 1805 4.4 14:56:23 27° NW 14:58:00 41° WSW 15:01:47 10° S
Cosmos 2208 Rocket 4.2 14:58:12 47° NNE 14:59:21 57° ENE 15:04:37 10° SSE
DELTA 2 R/B (1) 3.8 14:54:49 10° NW 15:06:56 - E 14:59:47 46° N
SPOT 5 3.6 14:56:12 10° SSE 15:01:00 37° E 15:01:17 37° ENE
Cosmos 468 Rocket 4.1 14:58:12 28° NNW 15:01:05 77° WSW 15:06:29 10° SSE
Cosmos 2154 Rocket 4.1 14:58:06 10° S 15:04:24 74° W 15:07:08 36° N
Cosmos 2341 Rocket 4.1 14:58:43 10° S 15:04:59 66° E 15:07:01 43° NE
Spot 2 Rocket 3.6 15:01:06 10° S 15:06:16 73° WSW 15:08:27 35° NNW
MetOp-B 4.3 15:02:42 10° S 15:08:07 73° WSW 15:10:38 33° NNW
Cosmos 1943 Rocket 2.6 15:04:21 17° NW 15:08:32 61° WSW 15:14:03 10° SSE
Cosmos 540 Rocket 3.8 15:09:52 46° ENE 15:10:07 46° ENE 15:15:06 10° SSE
SPOT 1/Viking Rocket 3.5 15:05:55 10° SSE 15:11:08 66° ENE 15:12:06 54° NNE
COSMOS 2487 4.2 15:10:10 10° S 15:12:44 24° SE 15:12:44 24° SE
SL-27 R/B 3.5 15:10:27 10° SSW 15:13:16 37° W 15:13:16 37° W
Terra 2.7 15:09:40 10° SSE 15:13:51 34° E 15:13:51 34° E
Cosmos 1626 Rocket 3.5 15:10:45 10° S 15:15:13 76° W 15:15:46 65° NNW
SL-8 R/B 3.6 15:15:31 68° NNE 15:15:43 69° NE 15:20:34 10° ESE
Cosmos 1867 3.4 15:14:47 45° NNW 15:16:30 82° ENE 15:21:56 10° SE
SJ 16-02 1.2 15:12:58 10° SSW 15:17:28 89° E 15:17:47 77° NNE
Cosmos 1570 Rocket 4.0 15:17:14 43° NNW 15:19:01 81° WSW 15:24:25 10° SSE
Cosmos 1814 Rocket 3.9 15:19:23 60° NE 15:20:00 66° ENE 15:25:11 10° SSE
USA 32 4.2 15:15:12 10° S 15:20:29 68° W 15:21:54 47° NNW
Resurs 01 Rocket 4.0 15:23:05 10° SSW 15:26:24 21° WSW 15:29:41 10° WNW
Cosmos 2263 4.3 15:24:12 34° NW 15:26:46 74° WSW 15:32:31 10° SSE
Cosmos 1626 2.5 15:26:09 10° SSW 15:29:32 62° SW 15:29:32 62° SW
Cosmos 2084 3.4 15:25:52 10° SW 15:30:19 79° WNW 15:30:19 79° WNW
Cosmos 1825 Rocket 4.1 15:26:25 10° S 15:30:38 45° ESE 15:30:38 45° ESE
Cosmos 2181 Rocket 4.0 15:32:03 47° N 15:34:07 90° W 15:40:40 10° S
Cosmos 1953 2.5 15:37:52 68° SE 15:37:52 68° SE 15:41:35 10° S
Cosmos 1937 Rocket 3.5 15:32:32 10° SSW 15:37:47 68° WNW 15:38:26 61° NNW
CARTOSAT-1 3.5 15:33:58 10° SSE 15:38:24 87° W 15:38:25 87° W
USA 267 3.6 15:32:48 10° SE 15:39:21 66° SW 15:45:52 10° WNW
SL-24 R/B - RUBIN 2 3.9 15:35:16 10° SSW 15:39:38 53° SE 15:39:45 52° ESE
IGS 5A 4.1 15:36:27 10° S 15:40:31 48° WSW 15:41:03 45° W
Helios 1B rocket 2.7 15:40:51 62° SE 15:40:51 62° SE 15:44:43 10° S
ATLAS 5 CENTAUR R/B 3.0 15:36:42 10° SSW 15:41:42 35° SE 15:43:14 29° E
Cosmos 1271 Rocket 3.5 15:38:15 10° SSW 15:41:57 47° W 15:41:57 47° W
Cosmos 1606 Rocket 3.7 15:45:35 63° ESE 15:45:35 63° ESE 15:49:39 10° SSE
Cosmos 1818 4.2 15:42:07 10° SW 15:47:12 42° WNW 15:47:35 41° NW
CZ-3 Stage 3 4.2 15:46:12 23° NW 15:51:13 50° NNE 16:27:30 10° E
Meteor 1-16 Rocket 4.3 15:50:43 58° NE 15:51:18 62° E 15:56:54 10° SSE
SL-8 Rocket 4.0 15:46:31 10° S 15:52:43 74° W 15:54:10 54° NNW
CZ-4 R/B 3.9 15:53:42 65° ENE 15:54:05 68° ESE 15:59:04 10° S
Cosmos 2150 Rocket 4.1 15:49:42 10° SSW 15:55:13 69° ESE 15:55:57 61° ENE
Cosmos 2228 3.2 15:57:29 71° SE 15:57:29 71° SE 16:01:32 10° S
Cosmos 1726 Rocket 3.7 16:04:52 74° SSE 16:04:52 74° SSE 16:08:57 10° S
Timation 2 Rocket 4.3 15:58:26 10° SSW 16:05:00 62° ESE 16:06:43 46° ENE
Lacrosse 4 Rocket 3.2 16:09:52 24° ESE 16:09:52 24° ESE 16:12:16 10° SE
ERS-1 Rocket 4.0 16:04:37 10° S 16:09:22 40° WSW 16:10:51 32° WNW
Cosmos 1953 Rocket 3.7 16:05:21 10° S 16:09:22 71° SSE 16:09:22 71° SSE
USA 234 3.5 16:08:51 32° ENE 16:12:09 68° SE 16:18:44 10° SW
Resurs 1-4 Rocket 4.5 16:10:02 10° E 16:12:32 14° ESE 16:15:03 10° SSE
Cosmos 1821 Rocket 4.4 16:07:33 10° S 16:13:31 49° ESE 16:14:41 44° ENE
Cosmos 2369 Rocket 4.2 16:10:10 10° WNW 16:14:44 24° SW 16:19:21 10° S
Cosmos 1758 Rocket 4.5 16:17:36 10° SSW 16:21:36 41° W 16:21:36 41° W
Cosmos 1908 4.2 16:24:05 47° SSE 16:24:05 47° SSE 16:27:01 10° SSE
Meteor 1-11 4.3 16:19:21 10° S 16:25:07 64° ESE 16:25:51 59° ENE
ISS -1.0 16:28:18 16° SE 16:28:18 16° SE 16:29:04 10° SE
Cosmos 1726 3.4 16:27:33 39° SSW 16:27:33 39° SSW 16:30:12 10° S
CZ-2D R/B 4.1 16:28:29 15° E 16:30:45 19° ESE 16:34:27 10° SSE
Cosmos 1125 Rocket 3.5 16:25:50 10° SSW 16:31:14 77° ESE 16:31:32 74° ENE
Cosmos 2297 Rocket 3.8 16:37:29 10° S 16:42:21 28° SE 16:45:12 19° E
Helios 1A 4.3 16:40:25 10° SSE 16:43:24 33° ESE 16:43:24 33° ESE
DELTA 2 R/B (1) 3.8 16:40:46 10° W 16:47:40 56° E 16:52:05 10° E
NOSS 3-1 (C) 4.1 16:43:16 41° NW 16:46:50 86° SW 16:54:40 10° SE
Cosmos 2227 Rocket 3.8 16:41:57 10° S 16:46:50 28° SE 16:49:49 18° E
Cosmos 1697 Rocket 4.5 16:49:36 18° E 16:49:36 18° E 16:53:23 10° ESE
Terra 3.5 16:47:41 10° SSW 16:51:38 25° WSW 16:52:44 23° W
USA 229 DEB 3.9 16:50:43 41° NW 16:53:40 75° SW 17:01:03 10° SSE
USA 229 3.9 16:50:50 41° NW 16:53:46 76° SW 17:01:09 10° SSE
Alouette 2 Rocket 4.3 16:58:47 67° NNW 16:59:36 82° WSW 17:07:36 10° S
NOSS 3-1 (A) 4.1 16:58:03 48° NNW 17:00:53 82° ENE 17:08:45 10° SE
Cosmos 2219 3.6 16:58:21 10° SSW 17:04:06 59° ESE 17:05:25 47° ENE
Cosmos 2058 Rocket 4.5 17:07:20 29° WSW 17:07:20 29° WSW 17:11:06 10° SSW
Cosmos 773 Rocket 4.4 17:07:58 48° E 17:07:58 48° E 17:12:52 10° SSE
DNEPR-1 R/B 4.2 17:03:09 10° SSW 17:08:02 68° ESE 17:09:04 55° ENE
Spot 4 4.1 17:08:25 10° S 17:13:13 58° WSW 17:13:19 58° WSW
Cosmos 1455 4.5 17:14:31 17° E 17:14:31 17° E 17:16:46 10° SE
Cosmos 1656 3.9 17:14:43 55° ENE 17:14:59 55° ENE 17:20:35 10° SSE
Cosmos 1339 Rocket 4.4 17:22:46 62° NNE 17:23:48 78° E 17:29:58 10° S
ALOS 2 2.7 17:20:27 10° SSE 17:24:33 75° S 17:24:33 75° S
ATLAS 5 CENTAUR R/B 3.3 17:21:47 10° SW 17:24:44 25° W 17:24:44 25° W
Cosmos 1607 4.0 17:24:20 10° SW 17:30:31 56° WNW 17:30:49 55° NW
Okean 3 Rocket 4.5 17:27:57 10° S 17:32:20 41° ESE 17:32:46 40° E
CZ-4B R/B 3.3 17:32:55 74° WNW 17:32:58 75° WNW 17:38:06 10° SSW
Cosmos 2058 3.2 17:32:27 10° S 17:36:15 68° S 17:36:15 68° S
Cosmos 1825 4.4 17:36:08 10° SSE 17:38:48 18° ESE 17:39:31 17° E
Cosmos 2151 3.9 17:35:27 10° S 17:39:38 42° ESE 17:39:55 41° E
Cosmos 2369 3.9 17:44:05 54° NE 17:44:48 58° ENE 17:50:25 10° SSE
YAOGAN 11 4.2 17:41:17 10° S 17:45:26 67° SW 17:45:26 67° SW
Lacrosse 4 Rocket 3.1 17:46:09 26° WSW 17:46:58 28° SW 17:50:53 10° S
Cosmos 1766 Rocket 4.2 17:44:42 10° S 17:48:58 47° E 17:49:20 46° E
Resurs 1-4 Rocket 2.0 17:50:54 68° N 17:51:35 84° WNW 17:56:59 10° SSW
IRS-1D 4.1 17:50:01 38° NE 17:51:49 55° ESE 17:57:06 10° S
Cosmos 2278 4.1 17:53:04 46° NE 17:53:59 50° ENE 17:59:30 10° SSE
USA 234 4.0 17:56:10 33° WNW 17:56:10 33° WNW 18:01:19 10° WSW
Meteor 2-10 Rocket 4.3 17:54:15 39° NE 17:55:35 47° E 18:00:48 10° SSE
Cosmos 1437 4.5 17:56:06 10° S 17:58:03 32° SSE 17:58:03 32° SSE
Cosmos 1680 Rocket 4.4 18:01:43 33° NE 18:02:47 37° ENE 18:07:38 10° SE
ISS -1.0 18:01:09 14° SW 18:02:51 18° SSW 18:05:20 10° SSE
Cosmos 2221 4.4 18:01:55 20° ENE 18:02:57 22° E 18:06:17 10° SE
Cosmos 1605 Rocket 4.2 17:59:01 10° SSW 18:05:10 54° W 18:06:23 47° NW
Cosmos 1340 Rocket 3.0 18:05:37 66° SSW 18:05:37 66° SSW 18:09:12 10° S
Cosmos 1980 Rocket 2.8 18:04:07 38° NE 18:05:19 43° ENE 18:10:37 10° SE
IRS-P3 4.4 18:05:23 41° NE 18:07:13 67° ESE 18:12:36 10° S
CZ-2D R/B 2.2 18:09:49 55° NW 18:10:21 58° W 18:15:38 10° SSW
Cosmos-2242 3.3 18:12:24 55° W 18:12:24 55° W 18:16:47 10° S
NPP 3.7 18:13:07 54° NW 18:13:46 58° W 18:19:10 10° SSW
ADEOS II 2.7 18:13:29 29° NE 18:15:59 55° ESE 18:21:10 10° S
Cosmos 2360 4.2 18:20:55 50° N 18:22:24 74° ENE 18:28:09 10° SSE
Cosmos 724 4.3 18:16:40 10° SW 18:22:51 71° WNW 18:25:05 41° N
Cosmos 1892 3.7 18:20:08 10° SSW 18:23:02 37° WSW 18:23:02 37° WSW
Cosmos 2322 Rocket 4.4 18:23:10 10° NE 18:26:24 16° E 18:29:43 10° ESE
Cosmos 2297 Rocket 2.5 18:21:10 10° SW 18:26:33 44° WNW 18:26:58 43° WNW
CBERS-1 4.1 18:30:08 52° NW 18:30:56 59° W 18:36:04 10° SSW
Cosmos 2227 Rocket 2.5 18:25:38 10° SW 18:31:02 44° WNW 18:31:36 43° WNW
AQUA 4.2 18:32:07 46° WNW 18:32:19 46° W 18:36:59 10° SSW
DELTA 2 R/B (1) 3.5 18:28:24 17° W 18:32:50 69° NNW 18:38:25 10° ENE
Cosmos 1697 Rocket 2.9 18:31:19 43° WNW 18:33:00 61° WSW 18:38:40 10° SSE
COSMOS 2455 4.4 18:31:20 19° NE 18:34:04 26° ENE 18:38:56 10° SE
SL-16 R/B 4.0 18:31:24 15° NE 18:34:23 22° E 18:38:40 10° SE
Cosmos 1842 Rocket 3.6 18:36:16 55° NNE 18:37:09 75° E 18:41:41 10° S
Cosmos 923 Rocket 4.0 18:36:15 49° NNW 18:37:44 81° WSW 18:43:10 10° SSE
Cosmos 1802 Rocket 4.1 18:31:47 10° S 18:38:19 84° E 18:41:47 30° N
Atlas Centaur 2 3.5 18:40:05 22° NNE 18:40:05 22° NNE 18:42:43 10° ENE
Meteor 2-3 Rocket 4.1 18:35:45 10° S 18:41:31 64° ESE 18:45:17 22° NNE
Cosmos 2016 Rocket 4.1 18:38:00 10° S 18:44:19 78° E 18:48:05 26° NNE
CZ-2D R/B 4.1 18:46:49 27° NE 18:48:44 52° ESE 18:52:40 10° S
Cosmos 1408 Rocket 3.6 18:44:57 10° SSW 18:49:16 57° W 18:49:48 52° NW
Cosmos 1408 3.4 18:45:43 10° SSW 18:48:52 38° WSW 18:48:52 38° WSW
Cosmos 1455 3.4 18:49:27 29° WSW 18:49:28 29° WSW 18:52:56 10° SSW
IDEFIX/ARIANE 42P 4.5 18:45:32 10° ENE 18:49:59 28° ESE 18:54:29 10° S
Cosmos 1743 Rocket 3.6 18:46:36 10° S 18:51:02 73° E 18:52:41 37° NNE
Cosmos 2123 Rocket 4.1 18:48:31 32° N 18:51:44 81° E 18:58:10 10° S
DELTA 2 DEB (DPAF) 4.1 18:51:17 10° S 18:55:51 80° WSW 18:57:09 46° NNW
ARIANE 5 R/B 2.5 18:55:13 36° N 18:57:20 72° WNW 19:02:32 10° SSW
Cosmos 1725 Rocket 4.0 18:53:15 10° S 18:59:36 82° E 19:04:05 21° N
Cosmos 1500 Rocket 3.5 19:01:17 10° S 19:05:52 84° W 19:07:47 34° N
CZ-2C R/B 3.3 19:04:57 22° NNE 19:07:23 59° ESE 19:11:17 10° S
STARLINK-67 3.4 19:10:17 40° E 19:10:17 40° E 19:12:23 10° ESE
Cosmos 1825 3.3 19:11:01 10° SSW 19:14:19 28° W 19:14:19 28° W
GP-B 4.2 19:10:30 10° SSW 19:14:27 30° W 19:15:25 27° WNW
CZ-4C R/B 3.9 19:17:24 10° S 19:21:48 53° WSW 19:23:34 32° NW
Shenzhou-11 Module 2.5 19:23:23 39° NE 19:23:23 39° NE 19:25:40 10° E
SL-4 R/B 3.2 19:24:44 25° N 19:26:45 38° NE 19:31:02 10° ESE
ATLAS 2AS CENTAUR R/B 3.5 19:25:44 15° N 19:30:19 37° ENE 19:35:53 10° SE
Cosmos 1869 3.3 19:28:55 31° NNW 19:30:47 73° W 19:34:54 10° S
ERS-2 2.2 19:28:34 10° S 19:32:17 62° WSW 19:33:46 33° NW
deb Chang Zheng 4 4.3 19:32:02 29° NW 19:33:25 36° W 19:37:33 10° SSW
ADEOS 4.3 19:28:45 10° NNE 19:33:51 56° ESE 19:39:01 10° S
Cosmos 1371 Rocket 4.0 19:30:17 10° SSW 19:35:41 68° WNW 19:40:59 10° N
BREEZE M DEB (TANK) 4.3 19:32:54 10° WSW 19:36:04 19° SSW 19:38:03 10° SSE
Cosmos 1238 Rocket 4.1 19:30:05 10° SSW 19:36:48 68° W 19:42:05 15° N
Cosmos 2233 Rocket 4.0 19:33:09 10° S 19:39:28 78° W 19:45:45 10° N
Cosmos 2221 3.6 19:38:46 23° WNW 19:40:19 29° WSW 19:44:08 10° SSW
USA 238 DEB 4.4 19:33:26 10° SSW 19:40:20 58° SE 19:46:57 10° NE
USA 238 4.4 19:33:33 10° SSW 19:40:27 57° SE 19:47:03 10° NE
ISS -0.6 19:38:50 10° SSW 19:40:37 13° S 19:42:25 10° SE
Cosmos 2360 Rocket 3.5 19:38:19 10° NNE 19:43:22 35° ENE 19:48:27 10° SE
CZ-2C R/B 4.2 19:40:29 10° NE 19:44:45 32° ESE 19:49:12 10° S
Cosmos 1633 2.7 19:41:44 10° S 19:45:25 76° E 19:48:57 11° NNE
PSLV R/B 3.9 19:43:24 10° NNE 19:47:46 68° ESE 19:52:11 10° S
Cosmos 1980 Rocket 3.5 19:45:53 15° WNW 19:49:27 28° SW 19:54:16 10° S
SL-16 R/B 2.6 19:45:14 10° SSE 19:51:37 87° WSW 19:57:14 13° NNW
Cosmos 2263 Rocket 2.2 19:46:43 10° SSW 19:52:29 82° WNW 19:58:09 10° NNE
Cosmos 1356 Rocket 4.4 19:53:50 20° WNW 19:55:43 30° WSW 19:59:20 10° SSW
ADEOS II 3.6 19:54:25 16° WNW 19:55:59 18° W 19:59:38 10° SW
CENTAUR R/B 4.3 19:50:55 10° SSW 19:56:06 30° SE 20:00:50 10° ENE
UNK 3.9 19:54:32 10° S 19:59:07 60° WSW 20:02:38 17° NNW
MSX 3.9 19:54:39 10° NNE 20:00:27 84° ESE 20:06:19 10° SSW
Sich 1 3.1 19:59:48 10° SSW 20:04:05 61° W 20:08:20 10° N
H-2A R/B 2.5 20:03:06 10° SSE 20:07:41 66° ENE 20:12:10 10° N
MOZ.5/SAFIR/RUBIN 5/SL-8 4.4 20:03:52 10° S 20:08:22 43° WSW 20:12:02 15° NW
PAYLOAD A 4.2 20:03:43 10° NNE 20:08:36 69° ESE 20:13:24 10° S
Cosmos 2322 Rocket 2.3 20:05:00 15° NNW 20:09:46 70° WSW 20:15:30 10° SSE
H-2A R/B 3.2 20:06:19 10° NNE 20:10:04 52° ESE 20:13:54 10° S
USA 215 4.1 20:05:18 10° ESE 20:11:33 43° NE 20:17:44 10° NNW
CZ-4B R/B 4.4 20:11:02 10° ESE 20:11:57 11° E 20:12:53 10° ENE
SL-16 R/B 2.6 20:13:17 14° NW 20:18:04 51° WSW 20:23:38 10° SSE
DELTA 2 R/B (1) 4.3 20:13:58 10° W 20:18:49 31° NNW 20:23:40 10° NNE
Cosmos 2219 Rocket 4.3 20:14:48 10° NNE 20:19:06 23° E 20:23:26 10° SE
COSMOS 2455 3.3 20:14:29 13° NW 20:19:38 51° SW 20:25:33 10° SSE
Cosmos 1933 4.1 20:18:59 10° N 20:23:00 56° E 20:27:06 10° SSE
Cosmos 2056 Rocket 4.4 20:20:04 10° SW 20:24:35 28° W 20:29:00 10° NNW
SL-8 R/B 4.3 20:20:14 10° WSW 20:25:03 62° SSE 20:29:50 10° ENE
Cosmos 1844 Rocket 4.3 20:19:49 10° S 20:25:13 41° ESE 20:30:33 10° NE
Atlas Centaur 2 3.0 20:22:41 11° WNW 20:26:45 25° N 20:30:29 10° NE
CZ-4C R/B 3.4 20:23:47 10° SSE 20:27:31 69° E 20:31:11 10° N
IDEFIX/ARIANE 42P 3.2 20:24:32 10° NNW 20:29:24 37° W 20:34:21 10° SSW
NOSS 3-2 (C) 3.8 20:26:03 10° SSW 20:32:31 71° SE 20:38:13 10° NE
SAR-Lupe-1 4.1 20:29:46 10° SSE 20:33:26 88° WSW 20:37:03 10° NNW
Cosmos 1633 Rocket 3.3 20:29:44 10° SSW 20:34:00 48° W 20:38:13 10° NNW
Cosmos 1328 Rocket 3.9 20:33:12 10° NNW 20:37:33 53° W 20:41:59 10° S
ATLAS 3B R/B 3.9 20:31:23 10° SSW 20:38:34 51° SE 20:45:30 10° ENE
Cosmos 44 4.3 20:35:21 10° SW 20:40:00 30° WNW 20:44:32 10° N
Cosmos 1464 Rocket 4.1 20:34:04 10° SSW 20:40:27 66° W 20:46:42 10° N
Cosmos 1420 Rocket 4.4 20:37:33 10° SSW 20:42:36 43° WNW 20:47:34 10° N
NOSS 3-4 (A) 4.2 20:36:00 10° NNW 20:44:13 89° ENE 20:52:08 10° SE
NOSS 3-4 (C) 4.2 20:36:07 10° NNW 20:44:18 89° ENE 20:52:14 10° SE
Meteor 1-28 Rocket 4.3 20:42:27 10° SSE 20:46:09 45° E 20:49:46 10° N
Cosmos 2237 4.3 20:40:52 10° NNW 20:46:33 75° WSW 20:52:19 10° SSE
ERBS 4.0 20:43:32 10° SSW 20:46:51 40° SE 20:50:06 10° ENE
Cosmos 494 Rocket 4.2 20:43:52 10° N 20:48:58 75° ENE 20:54:09 10° SSE
BREEZE-M DEB (TANK) 4.5 20:40:01 10° WSW 21:00:43 61° NW 21:05:48 10° NNE
